Regional Weather Roundup
Issued by NWS

Home | Current Version | Previous Version | Graphics & Text | Print | Product List | Glossary Off
Versions: 1 2 3 4 5 6 7 8 9 10 11 12 13 14 15 16 17 18 19 20 21 22 23 24 25 26 27 28 29 30 31 32 33 34 35 36 37 38 39 40 41 42 43 44 45 46 47 48 49 50

000
ASUS43 KMPX 230010
RWRMN
WEATHER ROUNDUP FOR MINNESOTA
NATIONAL WEATHER SERVICE TWIN CITIES/CHANHASSEN MN
600 PM CST WED NOV 22 2017


NOTE: "FAIR" INDICATES FEW OR NO CLOUDS BELOW 12,000 FEET WITH NO
SIGNIFICANT WEATHER AND/OR OBSTRUCTIONS TO VISIBILITY. N/A MEANS
CURRENT SKY AND/OR WEATHER CONDITIONS ARE NOT AVAILABLE.

MNZ060>063-068>070-230100-
   Twin Cities Metro

CITY           SKY/WX    TMP DP  RH WIND       PRES   REMARKS
TWIN CITIES    CLOUDY    30  15  53 S6        30.06F WCI  24
6HR MIN TEMP:  23; 6HR MAX TEMP:  30;

ST PAUL        CLOUDY    30  15  53 SE9       30.08F WCI  22
CRYSTAL        CLOUDY    29  12  49 S8        30.04F WCI  21
BLAINE         CLOUDY    30  16  55 S10       30.04F WCI  21
LAKEVILLE      CLOUDY    28  18  64 SE5       30.05S WCI  23
EDEN PRAIRIE   CLOUDY    30  15  53 SE8       30.04S WCI  22
6HR MIN TEMP:  24; 6HR MAX TEMP:  30;

SOUTH ST PAUL  CLOUDY    31  15  53 S7        30.06F WCI  24
LAKE ELMO      CLOUDY    30  18  59 SE7       30.06F WCI  23
$$
MNZ001>005-007-008-013>017-022>024-027-028-230100-
   Northwest Minnesota

CITY           SKY/WX    TMP DP  RH WIND       PRES   REMARKS
BEMIDJI        CLOUDY    21  16  83 SE3       29.96R
HALLOCK        CLOUDY    25  21  86 S8        29.95S WCI  16
ROSEAU         CLOUDY    23  18  80 S9        29.94F WCI  13
WARROAD        LGT SNOW  21  18  86 S3        29.95F
THIEF RVR FALL CLOUDY    23  18  81 E7        29.95F WCI  15
CROOKSTON      CLOUDY    28  19  69 S7        29.95F WCI  21
FOSSTON        CLOUDY    23  18  80 CALM      29.95R
DETROIT LAKES  CLOUDY    28  18  64 S8        29.93S WCI  20
MOORHEAD       CLEAR     27  16  63 SE10      29.92F WCI  17
PARK RAPIDS    CLOUDY    23  16  74 S7        29.94R WCI  15
MAHNOMEN       CLOUDY    27  16  65 S6        29.93R WCI  20
$$
MNZ006-009>011-018-025>026-230100-
   North Central Minnesota

CITY           SKY/WX    TMP DP  RH WIND       PRES   REMARKS
BAUDETTE       CLOUDY    19  16  88 S7        29.94F WCI  10
FLAG ISLAND    CLOUDY    19  16  86 S8        29.94R WCI   9
INTL FALLS     CLOUDY    20  14  77 S7        29.95F WCI  11
6HR MIN TEMP:  18; 6HR MAX TEMP:  20;

WASKISH        CLOUDY    19  18  93 CALM      29.97R
BIG FORK       LGT SNOW  21  18  86 S6        29.97R WCI  14
LONGVILLE      LGT SNOW  19  18  93 S5        29.98R WCI  13
GRAND RAPIDS   LGT SNOW  19  18  93 S8        29.99R FOG     WCI   9
CRANE LAKE     CLOUDY    19  16  86 CALM      30.00F
ORR            CLOUDY    19  14  79 S5        29.96R WCI  13
COOK           CLOUDY    19  16  86 CALM      29.99R
WALKER         CLOUDY    20  16  84 S6        29.96R WCI  13
$$
MNZ012-019>021-037-230100-
   Northeast Minnesota

CITY           SKY/WX    TMP DP  RH WIND       PRES   REMARKS
DULUTH         CLOUDY    20  16  84 S7        29.99F WCI  11
6HR MIN TEMP:  18; 6HR MAX TEMP:  20; 6HR PCP: TRACE;

ELY            CLOUDY    19  16  86 CALM      29.98S
HIBBING        LGT SNOW  19  16  88 VRB5      29.98F FOG     WCI  12
EVELETH        MIX PCPN  20  15  79 S7        29.99F WCI  11
DULUTH HARBOR  FLURRIES  25  19  80 SW6       30.06S WCI  18
TWO HARBORS    CLOUDY    25  18  74 SW6       30.00F WCI  18
SILVER BAY     CLOUDY    23  18  80 CALM      30.01R
GRAND MARAIS     N/A     26  16  65 W5        30.05F WCI  20
G MARAIS ARPRT CLOUDY    18  10  73 S3        29.97S
$$
MNZ029>031-032-039>041-046>048-054>057-064-230100-
   West Central Minnesota

CITY           SKY/WX    TMP DP  RH WIND       PRES   REMARKS
FERGUS FALLS   CLEAR     27  16  63 SE9       29.95S WCI  17
WHEATON        CLEAR     27  16  63 SE7       29.93S WCI  19
MORRIS         CLEAR     28  16  59 SE8       29.92S WCI  20
ALEXANDRIA     CLOUDY    29  15  56 SE7       29.95S WCI  22
ELBOW LAKE     FAIR      27  16  61 NW6       29.94R HAZE    WCI  21
WADENA         CLOUDY    25  16  68 S9        29.94F WCI  15
GLENWOOD       CLOUDY    28  16  59 SE9       29.95S WCI  20
APPLETON       CLEAR     32  18  55 S7        29.94R WCI  26
BENSON         CLEAR     32  16  51 S7        29.96S WCI  26
ORTONVILLE     CLEAR     30  18  59 N5        29.92R WCI  25
MADISON        CLEAR     30  18  59 S6        29.94S WCI  24
WILLMAR        MOCLDY    32  19  59 S6        29.98R WCI  26
$$
MNZ033>034-036-042>043-049>051-058-059-230100-
   Central Minnesota

CITY           SKY/WX    TMP DP  RH WIND       PRES   REMARKS
ST CLOUD       CLOUDY    26  15  63 SE14      29.99F WCI  14
6HR MIN TEMP:  21; 6HR MAX TEMP:  26; 6HR PCP: TRACE;

SAUK CENTRE    CLOUDY    28  15  58 SE8       29.97R WCI  20
PAYNESVILLE    CLOUDY    30  18  59 SE9G16    29.97F WCI  22
AITKIN         LGT SNOW  19  16  86 S9        29.97S WCI   9
PINE RIVER     CLOUDY    19  16  86 S6        30.01R WCI  11
BRAINERD       FLURRIES  22  17  81 S7        29.99R WCI  13
STAPLES        CLOUDY    25  12  58 S9        29.96S WCI  15
LITTLE FALLS   CLOUDY    27  10  50 SE10      29.99S WCI  17
LITCHFIELD     CLOUDY    30  18  59 SE8       29.98F WCI  23
BUFFALO        CLOUDY    28  15  57 SE6       30.03F WCI  22
MAPLE LAKE     CLOUDY    29  19  64 SE6       30.02F WCI  23
HUTCHINSON     CLOUDY    32  18  57 SE9       30.00F WCI  24
$$
MNZ037-044-045-052-053-230100-
   East Central Minnesota

CITY           SKY/WX    TMP DP  RH WIND       PRES   REMARKS
PRINCETON      CLOUDY    27  16  63 SE8       30.01F WCI  18
MORA           CLOUDY    21  19  93 S7        30.04F WCI  13
CAMBRIDGE      CLOUDY    27  16  63 S8        30.04F WCI  18
RUSH CITY      FLURRIES  23  19  86 S7        30.04F WCI  15
MOOSE LAKE     LGT SNOW  23  18  80 S6        29.99F WCI  16
HINCKLEY       MOCLDY    23  21  93 SE5       30.03F WCI  17
CLOQUET        FLURRIES  19  16  86 S6        30.00S WCI  11
MCGREGOR       CLOUDY    23  19  86 S8        29.99F WCI  14
$$
MNZ071>073-080-081-089-090-097-098-230100-
   Southwest Minnesota

CITY           SKY/WX    TMP DP  RH WIND       PRES   REMARKS
MONTEVIDEO     CLEAR     34  18  51 SW6       29.96R WCI  29
GRANITE FALLS  CLEAR     32  18  56 S5        29.98R WCI  27
CANBY          CLEAR     37  19  50 SW7G17    29.93S
MARSHALL       PTCLDY    33  17  51 CALM      29.95R
REDWOOD FALLS  CLOUDY    35  15  44 S14       29.97F WCI  26
OLIVIA         PTCLDY    36  18  48 S14       29.96S
PIPESTONE      CLEAR     32  18  55 SW14      29.94R WCI  22
WINDOM         MOCLDY    34  16  47 S18G25    29.97S WCI  23
WORTHINGTON    CLEAR     32  18  56 SW24      29.94F WCI  19
JACKSON        PTCLDY    32  16  51 SW20G25   29.98F WCI  20
SLAYTON        CLEAR     32  11  42 S15G23    29.94F WCI  22
$$
MNZ065>067-074>077-082>085-091>093-230100-
   South Central Minnesota

CITY           SKY/WX    TMP DP  RH WIND       PRES   REMARKS
MANKATO        CLOUDY    32  16  51 S10       30.02F WCI  24
NEW ULM        CLOUDY    34  16  47 CALM      29.99F
ST JAMES       CLOUDY    34  16  47 S13       30.00F WCI  25
FAIRMONT       MOCLDY    34  16  47 S15       30.01F WCI  24
GLENCOE        CLOUDY    32  17  53 SE7       30.01S WCI  26
FARIBAULT      CLOUDY    30  16  55 S8        30.04F WCI  23
OWATONNA       CLOUDY    30  18  59 S12       30.02F WCI  21
WASECA         CLOUDY    32  19  59 S13       30.04F WCI  22
ALBERT LEA     CLOUDY    32  12  43 S12G17    30.03F WCI  23
$$
MNZ078>079-086>088-094>096-230100-
   Southeast Minnesota

CITY           SKY/WX    TMP DP  RH WIND       PRES   REMARKS
ROCHESTER      CLOUDY    29  16  58 S14       30.06F WCI  18
6HR MIN TEMP:  26; 6HR MAX TEMP:  30;

RED WING       CLOUDY    30  12  47 SE7       30.07F WCI  23
STANTON        CLOUDY    32  17  52 S6        30.04F WCI  26
DODGE CENTER   CLOUDY    30  16  55 S12       30.04F WCI  21
WINONA         CLOUDY    32  18  55 CALM      30.14F
AUSTIN         CLOUDY    30  16  55 S9        30.05F WCI  22
PRESTON        CLOUDY    29  15  55 S10       30.09F WCI  20
$$
ABBREVIATIONS USED IN REMARKS
   TC - TEMPERATURES IN CELSIUS
  WCI - WIND CHILL INDEX
   HX - HEAT INDEX
  VSB - VISIBILITY
$$




USA.gov is the U.S. government's official web portal to all federal, state and local government web resources and services.